Location: Decatur Area Astronomy Club
(40.0275°N, 88.7810°W)
Time: 02:46:52
(UTC-05:00)

Daily predictions for brighter satellites

Satellite Brightness Start Highest point End
(mag) Time Altitude Azimuth Time Altitude Azimuth Time Altitude Azimuth
Okean 1-7 3.2 00:05:15 10° N 00:08:58 67° NNW 00:08:58 67° NNW
Cosmos 1703 Rocket 4.2 00:08:16 10° NNW 00:12:10 46° W 00:12:10 46° W
Cosmos 2227 Rocket 3.7 00:08:49 14° WSW 00:12:53 31° WNW 00:17:55 10° N
Cosmos 2074 Rocket 3.9 00:13:11 62° SSE 00:14:15 78° E 00:20:34 10° N
ATLAS 3B R/B 2.5 00:08:59 10° NW 00:15:59 80° WSW 00:17:15 60° SSE
Cosmos 2221 Rocket 4.4 00:13:32 10° NNW 00:17:42 44° W 00:17:42 44° W
Cosmos 2263 Rocket 4.3 00:19:12 13° E 00:19:12 13° E 00:21:04 10° ENE
Cosmos 2251 Rocket 4.0 00:13:34 10° N 00:18:43 48° ENE 00:19:20 46° E
Terra 4.1 00:17:55 13° WSW 00:18:46 13° W 00:21:07 10° WNW
Cosmos 1340 Rocket 4.2 00:21:31 32° NE 00:21:31 32° NE 00:23:58 10° NNE
Cosmos 44 Rocket 3.3 00:21:06 82° E 00:21:06 82° E 00:26:14 10° NNE
H-2A R/B 4.3 00:19:46 13° WSW 00:21:21 14° W 00:24:07 10° WNW
USA 238 DEB 4.1 00:16:05 10° NNW 00:23:03 59° NE 00:25:50 36° ESE
USA 238 4.1 00:16:12 10° NNW 00:23:09 58° NE 00:25:58 36° ESE
Cosmos 2327 Rocket 4.4 00:22:33 63° S 00:23:43 89° W 00:30:10 10° N
Cosmos 2333 Rocket 3.7 00:20:16 10° NW 00:24:39 23° W 00:25:14 23° WSW
SL-16 R/B 2.3 00:21:54 10° NNW 00:27:29 58° WSW 00:27:44 58° WSW
GEOS 3 Rocket 3.4 00:27:38 81° SSE 00:27:55 89° SW 00:33:09 10° NW
Cosmos 2227 4.1 00:28:50 67° ESE 00:28:53 67° ESE 00:34:30 10° NNE
Cosmos 1689 Rocket 4.3 00:31:12 29° N 00:31:12 29° N 00:32:58 10° N
NOSS 2-3 (E) 4.0 00:30:45 64° W 00:31:18 70° NW 00:36:55 10° NNE
SL-08 ROCKET BODY 4.3 00:32:15 67° S 00:33:11 89° W 00:39:23 10° N
Cosmos 389 Rocket 4.3 00:30:27 10° NNW 00:32:28 28° NW 00:32:28 28° NW
Cosmos 921 Rocket 4.4 00:38:18 29° ENE 00:38:18 29° ENE 00:40:50 10° NNE
CZ-4C R/B 3.8 00:31:30 10° NNW 00:38:08 42° NE 00:43:31 18° ESE
Cosmos 2297 Rocket 3.9 00:36:45 16° WSW 00:40:11 27° NW 00:44:59 10° N
Meteor 2-10 Rocket 3.6 00:34:41 10° N 00:40:19 78° E 00:40:45 73° SE
Cosmos 2154 Rocket 4.1 00:41:41 58° SE 00:42:31 63° E 00:48:44 10° NNE
CZ-4B R/B 3.3 00:44:19 31° NNW 00:44:19 31° NNW 00:46:15 10° NNW
CZ-2C R/B 3.0 00:41:24 10° NNE 00:46:13 48° E 00:46:13 48° E
Cosmos 494 Rocket 4.2 00:44:25 10° NNW 00:49:40 62° ENE 00:49:59 60° E
Cosmos 1932 4.4 00:44:41 10° NNW 00:51:07 90° ENE 00:52:12 65° SSE
Cosmos 1943 4.3 00:46:07 10° N 00:51:21 36° ENE 00:53:13 29° E
SeaSat 1 3.6 00:52:14 31° W 00:52:14 31° W 00:55:56 10° NW
Cosmos 2184 Rocket 4.4 00:53:19 45° WSW 00:54:35 53° W 01:00:38 10° N
Cosmos 1603 3.5 00:55:36 10° NNW 01:01:19 81° WSW 01:01:33 79° SSW
Meteor 2-6 Rocket 4.2 00:55:56 10° N 01:01:48 80° E 01:02:26 71° SE
Cosmos 1606 4.1 00:58:44 10° N 01:01:27 36° NE 01:01:27 36° NE
Lacrosse 4 Rocket 3.4 00:58:47 10° NW 01:00:59 22° WNW 01:00:59 22° WNW
FALCON 9 R/B 3.8 00:55:11 10° W 01:03:14 31° WSW 01:03:14 31° WSW
Cosmos 1356 Rocket 4.2 01:08:33 47° NNW 01:08:33 47° NNW 01:11:37 10° N
ASTEX 1 4.2 01:06:04 10° N 01:10:36 40° WNW 01:10:43 40° W
Cosmos 1238 Rocket 4.0 01:07:30 10° N 01:10:17 39° NNE 01:10:17 39° NNE
Sich 1 Rocket 3.9 01:12:10 66° N 01:12:10 66° N 01:16:05 10° N
Cosmos 2341 Rocket 3.9 01:13:16 66° S 01:14:16 88° E 01:20:41 10° N
Cosmos 1733 Rocket 4.1 01:18:46 39° WNW 01:18:46 39° WNW 01:22:34 10° N
NOSS 3-4 (A) 3.6 01:17:55 55° SE 01:18:23 57° ESE 01:24:47 10° NE
NOSS 3-4 (C) 3.6 01:18:01 55° SE 01:18:30 56° ESE 01:24:52 10° NE
Cosmos 1892 4.5 01:19:35 26° NW 01:19:35 26° NW 01:22:01 10° NNW
NOSS 3-2 (A) 4.3 01:13:01 10° NNW 01:20:27 63° NE 01:25:29 24° SE
Okean 3 4.2 01:16:39 10° N 01:20:24 49° NE 01:20:24 49° NE
Cosmos 962 Rocket 4.3 01:22:44 67° SSW 01:23:35 79° W 01:29:44 10° N
H-2A R/B 4.4 01:23:07 10° NNW 01:26:15 21° WNW 01:26:29 20° WNW
Cosmos 44 3.7 01:27:01 58° W 01:27:38 63° NW 01:33:03 10° NNE
SL-8 Rocket 4.0 01:30:12 59° SSE 01:31:18 71° E 01:37:37 10° NNE
MOS 1-B Rocket 4.0 01:31:49 55° WSW 01:32:05 56° WSW 01:37:36 10° NNW
Cosmos 1378 Rocket 3.9 01:27:57 10° N 01:31:39 62° NNW 01:31:39 62° NNW
Meteor 2-13 Rocket 4.3 01:34:04 66° S 01:34:59 85° E 01:41:09 10° N
BREEZE-M DEB (TANK) 4.2 01:23:46 10° WNW 01:37:56 81° NNE 01:40:42 26° ESE
Cosmos 1408 3.7 01:39:55 44° N 01:39:55 44° N 01:42:36 10° N
Cosmos 2218 Rocket 4.1 01:37:59 55° SSE 01:39:12 68° E 01:45:29 10° NNE
Cosmos 1825 3.2 01:45:14 45° NNW 01:45:14 45° NNW 01:48:00 10° N
Okean 2 Rocket 3.2 01:51:20 76° NNW 01:51:20 76° NNW 01:55:33 10° N
Cosmos 2366 rocket 3.9 01:53:00 58° SSE 01:54:16 77° E 02:00:27 10° N
Cosmos 1782 Rocket 3.9 01:55:09 58° NW 01:55:09 58° NW 01:59:04 10° N
Cosmos 1844 Rocket 4.4 01:58:18 18° ESE 01:59:40 20° E 02:03:42 10° NE
Cosmos 2263 Rocket 2.1 02:00:53 65° SW 02:01:45 81° WNW 02:07:28 10° NNE
Cosmos 909 Rocket 4.2 02:01:27 50° SSE 02:02:52 62° ESE 02:09:55 10° NE
CZ-2C R/B 3.5 02:02:40 50° WSW 02:03:03 51° W 02:08:35 10° NNW
RESURS DK-1 2.5 02:12:15 73° NNE 02:12:15 73° NNE 02:16:03 10° NNE
Abrixas rocket 3.8 02:16:30 34° NE 02:16:30 34° NE 02:18:34 10° ENE
Cosmos 1727 Rocket 3.9 02:10:36 10° N 02:16:52 85° W 02:18:33 51° S
Cosmos 864 Rocket 4.4 02:16:01 54° SSW 02:17:28 75° W 02:23:38 10° N
COSMOS 2406 4.1 02:12:31 10° NNW 02:18:05 46° ENE 02:22:28 16° SE
Cosmos 1975 Rocket 4.0 02:14:02 10° NNW 02:17:28 36° WNW 02:17:28 36° WNW
Cosmos 1867 3.4 02:13:22 10° NNW 02:18:51 81° WSW 02:19:56 58° SSE
Cosmos 2278 Rocket 4.4 02:18:51 11° SE 02:21:27 14° E 02:24:24 10° ENE
Cosmos 1624 Rocket 3.8 02:22:12 66° SSW 02:22:58 88° WNW 02:28:15 10° NNE
IRS-P3 4.4 02:17:50 10° NNE 02:23:08 61° ESE 02:24:25 47° SSE
Iridium 4 Rocket 3.3 02:20:47 10° N 02:25:30 83° E 02:26:21 62° SSE
CZ-2C R/B 4.3 02:22:34 10° NNW 02:26:20 21° WNW 02:27:44 19° W
CZ-4C R/B 3.1 02:19:58 10° NW 02:26:53 49° WSW 02:28:37 42° SSW
Cosmos 1242 Rocket 3.2 02:24:17 10° N 02:26:54 48° NNW 02:26:54 48° NNW
Cosmos 1184 Rocket 4.2 02:29:23 33° NW 02:29:23 33° NW 02:31:40 10° N
Cosmos 1536 Rocket 3.4 02:25:42 10° N 02:30:06 85° E 02:30:27 75° SSE
USA 234 3.3 02:24:58 10° SE 02:31:29 78° NE 02:38:02 10° NW
Resurs 1-4 Rocket 4.4 02:29:52 10° NE 02:32:59 16° E 02:36:03 10° SE
SL-08 R/B 3.8 02:32:30 35° SE 02:34:26 60° ENE 02:39:17 10° N
PSLV R/B 3.6 02:30:30 10° N 02:34:38 58° WNW 02:34:45 58° W
Cosmos 1943 4.1 02:30:21 10° NW 02:35:00 31° W 02:35:00 31° W
Meteor 1-14 Rocket 4.5 02:34:38 47° SW 02:36:09 62° WNW 02:42:01 10° N
ATLAS 2A CENTAUR R/B 3.8 02:38:20 31° S 02:38:58 31° SSE 02:55:16 10° ESE
Landsat 4 3.9 02:41:56 61° WNW 02:41:56 61° WNW 02:45:18 10° NNW
CENTAUR R/B 3.8 02:35:00 10° NNW 02:42:36 53° NE 02:50:39 10° SE
Cosmos 1452 Rocket 3.9 02:42:56 40° SSE 02:44:29 55° ESE 02:49:38 10° NNE
ARIANE 5 R/B 4.1 02:41:21 10° NE 02:45:31 26° E 02:48:13 17° SE
NOSS 3-2 (C) 4.2 02:40:24 10° NW 02:47:44 52° WSW 02:51:10 33° S
Cosmos 2151 Rocket 4.1 02:49:34 42° W 02:49:53 43° WNW 02:54:10 10° N
AQUA 3.8 02:47:34 10° NNE 02:52:20 79° ESE 02:53:38 49° S
ADEOS 4.0 02:47:26 10° NNE 02:52:34 54° E 02:54:44 32° SSE
CBERS-1 4.0 02:49:31 10° NNE 02:54:42 83° ESE 02:56:24 44° S
Okean 1-7 Rocket 3.9 02:51:28 10° N 02:56:02 65° E 02:57:55 34° SSE
Cosmos 1000 Rocket 4.4 02:53:33 10° N 02:59:44 89° W 03:03:01 30° S
Okean 1 Rocket 3.0 02:59:23 51° S 03:00:28 84° E 03:04:58 10° N
Meteor 1-18 Rocket 4.4 02:58:13 10° NNW 03:03:44 56° W 03:05:40 38° SSW
NPP 3.8 03:02:54 10° N 03:08:14 63° WNW 03:10:15 37° SW
Gbstr 26 Del rocket 2.7 03:08:34 59° SSW 03:09:08 70° SE 03:12:53 10° ENE
SL-16 R/B 3.4 03:03:53 10° SE 03:09:49 48° ENE 03:15:45 10° N
Okean O Rocket 4.4 03:08:50 10° ENE 03:09:59 11° E 03:11:08 10° ESE
Cosmos 1190 Rocket 4.3 03:07:24 10° NNW 03:12:24 47° WSW 03:13:43 38° SW
Cosmos 1140 Rocket 4.2 03:10:58 10° N 03:16:01 53° ENE 03:21:00 10° SE
NOSS 2-2 (D) 3.9 03:16:07 37° S 03:17:24 52° ESE 03:21:53 10° NE
ERS-2 2.6 03:15:38 10° N 03:19:13 47° WNW 03:19:48 42° WSW
GP-B 3.3 03:15:08 10° N 03:19:29 56° W 03:20:46 40° SW
Cosmos 1605 Rocket 4.3 03:15:16 20° SSE 03:19:34 63° E 03:25:44 10° NNE
Cosmos 1821 Rocket 4.0 03:17:26 30° SSW 03:20:49 75° W 03:27:15 10° N
Cosmos 724 4.3 03:15:08 10° NW 03:21:16 73° WSW 03:27:25 10° SSE
Cosmos 2123 Rocket 4.1 03:17:55 10° N 03:24:17 79° E 03:29:54 13° S
Meteor 2-14 Rocket 4.4 03:20:39 25° S 03:24:23 83° E 03:30:28 10° N
Cosmos 1812 3.4 03:20:56 10° NNW 03:24:31 36° W 03:24:45 35° W
EO 1 Del DPAF 4.3 03:21:45 11° SE 03:25:15 44° ENE 03:28:59 10° N
Cosmos 407 Rocket 3.9 03:23:15 10° NNW 03:28:06 42° WSW 03:29:51 31° SSW
Cosmos 1025 Rocket 3.3 03:23:59 10° N 03:28:16 67° E 03:31:24 18° SSE
CZ-2D R/B 2.8 03:23:33 10° NNE 03:28:51 51° E 03:33:04 16° S
Meteor 1-11 Rocket 3.8 03:25:35 26° S 03:29:10 89° E 03:35:11 10° N
Meteor 2-21 Rocket 4.4 03:26:37 27° SSW 03:30:05 77° W 03:36:13 10° N
Spot 4 Rocket 4.0 03:26:09 10° N 03:31:19 78° WNW 03:34:03 28° SSW
NOSS 2-2 (C) 3.5 03:30:09 36° SSW 03:31:46 76° ESE 03:36:26 10° NE
Meteor 1-13 Rocket 4.2 03:29:08 10° NNW 03:34:47 71° W 03:38:58 19° S
Meteor 2-15 4.4 03:29:34 10° N 03:35:46 89° WSW 03:41:21 13° S
Cosmos 676 Rocket 4.2 03:31:07 10° NNW 03:36:05 49° WSW 03:38:46 25° SSW
SL-27 R/B 3.5 03:34:57 10° NW 03:38:09 30° W 03:38:09 30° W
Okean 1 4.3 03:35:28 10° NNW 03:38:56 29° W 03:39:29 27° WSW
Cosmos 1400 Rocket 3.1 03:40:17 22° S 03:42:36 61° E 03:46:29 10° NNE
Cosmos 1844 Rocket 3.0 03:39:58 26° SW 03:43:05 55° WNW 03:48:39 10° NNE
Cosmos 2263 Rocket 4.4 03:43:54 10° WNW 03:46:36 13° NW 03:49:18 10° NNW
Cosmos 1844 3.9 03:47:31 24° SW 03:50:59 64° WNW 03:56:43 10° NNE
Cosmos 1544 Rocket 3.6 03:47:56 19° S 03:51:04 80° E 03:55:28 10° N
IRS-1D 3.4 03:46:30 10° N 03:51:36 79° WNW 03:55:04 20° SSW
Abrixas rocket 4.4 03:49:55 10° WNW 03:52:40 23° NNW 03:55:25 10° NE
Meteor 1-23 Rocket 4.3 03:48:02 10° N 03:53:48 85° E 03:59:26 10° S
USA 161 2.4 03:54:31 29° W 03:54:33 29° W 03:57:09 10° NNW
USA 129 4.5 03:55:28 10° SE 03:57:07 20° ENE 03:58:46 10° NNE
NOSS 2-2 (E) 3.9 03:55:06 23° WSW 03:57:32 56° NW 04:02:23 10° NNE
COSMOS 2406 4.3 03:57:31 10° NW 04:02:03 25° W 04:04:28 19° SW
Cosmos 2297 4.2 03:58:40 12° S 04:03:43 56° ESE 04:09:16 10° NNE
Cosmos 2278 Rocket 2.2 04:00:42 19° SSW 04:04:48 73° WNW 04:10:30 10° NNE
UNK 3.8 04:02:45 11° S 04:07:10 61° W 04:11:46 10° NNW
ATLAS 5 CENTAUR R/B 2.7 04:02:28 10° NNW 04:08:30 74° NE 04:14:54 10° SE
Cosmos 1315 Rocket 3.0 04:05:41 13° S 04:09:17 76° E 04:13:21 10° NNE
Cosmos 1459 Rocket 4.4 04:06:15 10° S 04:12:32 67° E 04:18:47 10° NNE
Meteor 1-5 Rocket 4.3 04:06:43 10° S 04:12:37 87° E 04:18:24 10° N
Resurs 1-4 Rocket 2.2 04:07:58 10° N 04:13:14 63° WNW 04:17:44 14° SSW
Cosmos 1892 Rocket 3.7 04:10:02 10° NNW 04:14:17 55° W 04:18:28 10° S
Cosmos 614 Rocket 3.9 04:09:41 10° NNW 04:14:50 69° WSW 04:19:54 10° S
USA 234 4.0 04:09:28 10° S 04:14:52 27° SW 04:20:17 10° WNW
Cosmos 2100 Rocket 4.2 04:08:48 10° S 04:15:01 75° E 04:21:20 10° N
IRS-1C Rocket 4.4 04:09:52 10° NNE 04:15:08 67° ESE 04:20:21 10° S
MTI 3.8 04:13:14 10° S 04:16:29 63° W 04:19:47 10° NNW
Okean 2 3.5 04:17:59 10° NNW 04:22:01 58° W 04:26:02 10° S
CZ-4B R/B 3.9 04:17:00 10° NNE 04:22:37 58° E 04:28:10 10° S
Cosmos 1356 4.3 04:21:45 17° SW 04:24:02 35° WNW 04:27:20 10° N
Cosmos 2082 Rocket 2.9 04:18:28 10° NNW 04:24:09 59° ENE 04:29:45 10° SE
Cosmos 1975 3.6 04:20:46 10° S 04:24:38 51° E 04:28:31 10° NNE
ARIANE 5 R/B 3.3 04:20:11 10° N 04:24:40 34° WNW 04:28:34 13° SW
Cosmos 1633 3.8 04:23:10 16° SW 04:25:15 26° WNW 04:28:22 10° NNW
Meteor 2-4 Rocket 4.0 04:24:13 10° NNW 04:29:18 43° W 04:34:18 10° SSW
Cosmos 1110 Rocket 4.2 04:25:01 10° SSW 04:30:20 79° ESE 04:35:39 10° NNE
CENTAUR R/B 3.5 04:26:00 10° NW 04:33:16 40° WSW 04:40:49 10° S
ASTRO F (AKARI) 4.4 04:30:10 10° SSE 04:33:31 86° WSW 04:37:05 10° NNW
Timation 2 Rocket 3.9 04:29:05 10° NNW 04:35:09 65° WSW 04:41:02 10° S
Okean-O 4.4 04:31:25 10° NNE 04:35:23 31° E 04:39:20 10° SSE
Cosmos 1536 4.5 04:33:22 12° WSW 04:35:58 20° WNW 04:39:01 10° NNW
COSMOS 2487 3.9 04:33:37 10° NW 04:36:25 21° W 04:39:12 10° SSW
ADEOS II 4.1 04:33:00 10° NE 04:37:22 26° E 04:41:43 10° SSE
Thor Agena Rocket 3.7 04:33:30 10° SSE 04:38:41 81° ENE 04:43:49 10° NNW
UNKNOWN OBJECT B 3.7 04:36:25 10° N 04:40:12 37° WNW 04:43:57 10° SW
CZ-2D R/B 3.7 04:37:34 10° N 04:41:26 49° WNW 04:45:21 10° SSW
Cosmos 2061 Rocket 4.1 04:36:04 10° SSW 04:42:22 74° W 04:48:47 10° N
Cosmos 1500 4.2 04:40:52 10° SSE 04:44:36 49° E 04:48:22 10° NNE
BREEZE-M DEB (TANK) 3.1 04:40:40 10° SW 04:45:11 67° SE 04:48:41 10° ENE
Cosmos 1602 Rocket 3.5 04:41:03 10° NNW 04:45:23 73° W 04:49:43 10° S
Cosmos 1461 4.3 04:41:11 10° WSW 04:45:25 32° NW 04:49:35 10° NNE
Okean O Rocket 1.7 04:42:27 10° N 04:46:46 62° WNW 04:51:02 10° SSW
PSLV R/B 4.1 04:44:28 10° N 04:48:33 58° WNW 04:52:35 10° SSW
Cosmos 1331 Rocket 4.0 04:47:59 10° SSW 04:53:12 74° WNW 04:58:26 10° NNE
SL-16 R/B 3.5 04:48:30 10° SSW 04:53:37 26° W 04:58:46 10° NW
